Home   Weather   Pointe-à-Pitre   Past weeks

Flag for Guadeloupe Past Weather in Pointe-à-Pitre, Guadeloupe — Yesterday and Last 2 Weeks

Now
75 °F

Overcast.


Feels Like: 74 °F
Forecast: 75 / 82 °F
Wind: 3 mph from Southeast

Location: Le Raizet - Guadeloupe

Current Time: Apr 27, 2017 at 5:30:32 am

Latest Report: Apr 27, 2017 at 5:00 am


Visibility: N/A

Pressure: 29.95 "Hg

Humidity: 94%

Dew Point: 73 °F

Location of Pointe-à-PitreLocation

Past Weather in Pointe-à-Pitre — Graph

°F

Pointe-à-Pitre Temperature Yesterday

Maximum temperature yesterday: 86 °F (at 11:30 am)
Minimum temperature yesterday: 75 °F (at 2:00 am)
Average temperature yesterday: 80 °F

High & Low Weather Summary for the Past Weeks

 TemperatureHumidityPressure
High86 °F (Apr 12, 12:00 pm)100% (Apr 14, 12:30 am)30.04 "Hg (Apr 14, 12:30 am)
Low68 °F (Apr 20, 2:00 am)51% (Apr 19, 2:30 pm)29.86 "Hg (Apr 12, 3:00 pm)
Average78 °F81%29.96 "Hg
* Reported Apr 12 4:00 am — Apr 27 4:00 am, Pointe-à-Pitre, Weather by CustomWeather, © 2017

Note: Actual official high and low records may vary slightly from our data, if they occured in-between our weather recording intervals... More about our weather records

Advertising

Pointe-à-Pitre Weather History for the Previous 24 Hours

Scroll right to see more
 ConditionsComfort  
Time TempWeatherWind HumidityBarometerVisibility
4:00 am
Thu, Apr 27
75 °FPassing clouds.3 mph94%29.95 "HgN/A
3:30 am75 °FPassing clouds.5 mph94%29.95 "HgN/A
3:00 am75 °FPassing clouds.3 mph94%29.95 "HgN/A
2:30 am75 °FPassing clouds.2 mph94%29.95 "HgN/A
2:00 am75 °FPassing clouds.3 mph94%29.95 "HgN/A
1:30 am75 °FPassing clouds.No wind94%29.95 "HgN/A
1:00 am75 °FClear.2 mph94%29.98 "Hg10 mi
12:30 am77 °FPassing clouds.2 mph89%29.98 "HgN/A
12:00 am77 °FPartly cloudy.3 mph89%29.98 "HgN/A
11:30 pm
Wed, Apr 26
77 °FPassing clouds.6 mph89%30.01 "HgN/A
11:00 pm77 °FClear.5 mph89%30.01 "Hg10 mi
10:30 pm77 °FWarm.5 mph89%30.01 "HgN/A
9:30 pm79 °FClear.5 mph79%30.01 "Hg10 mi
9:00 pm79 °FPassing clouds.5 mph79%29.98 "HgN/A
8:30 pm79 °FPassing clouds.7 mph79%29.98 "HgN/A
8:00 pm79 °FMostly cloudy.7 mph79%29.98 "HgN/A
7:30 pm79 °FPassing clouds.6 mph79%29.98 "HgN/A
7:00 pm81 °FPartly cloudy.7 mph74%29.95 "HgN/A
6:30 pm81 °FClear.9 mph74%29.95 "Hg10 mi
6:00 pm81 °FSunny.10 mph74%29.92 "Hg10 mi
5:30 pm82 °FPassing clouds.12 mph70%29.92 "HgN/A
5:00 pm82 °FBroken clouds.13 mph70%29.92 "HgN/A
4:30 pm84 °FPassing clouds.13 mph62%29.89 "HgN/A
4:00 pm84 °FPartly sunny.12 mph66%29.89 "HgN/A
3:30 pm84 °FScattered clouds.12 mph62%29.89 "HgN/A
3:00 pm84 °FPartly sunny.12 mph62%29.92 "HgN/A
2:30 pm84 °FPartly sunny.13 mph62%29.92 "HgN/A
2:00 pm86 °FPassing clouds.14 mph59%29.92 "HgN/A
1:30 pm86 °FPassing clouds.12 mph59%29.92 "HgN/A
1:00 pm86 °FScattered clouds.12 mph59%29.95 "HgN/A
12:30 pm86 °FPartly sunny.10 mph59%29.95 "HgN/A
12:00 pm86 °FPassing clouds.12 mph59%29.98 "HgN/A
11:30 am86 °FPassing clouds.14 mph59%29.98 "HgN/A
11:00 am84 °FPartly sunny.14 mph62%29.98 "HgN/A
10:30 am84 °FPartly sunny.12 mph62%29.98 "HgN/A
10:00 am84 °FPartly sunny.13 mph62%29.98 "HgN/A
9:30 am84 °FPartly sunny.12 mph62%29.98 "HgN/A
9:00 am84 °FScattered clouds.9 mph62%29.98 "HgN/A
8:00 am81 °FSunny.8 mph74%29.98 "Hg10 mi
7:30 am81 °FPassing clouds.8 mph74%29.98 "HgN/A
7:00 am79 °FSunny.8 mph74%29.95 "Hg10 mi
6:30 am77 °FSunny.6 mph79%29.95 "Hg10 mi
6:00 am75 °FSunny.3 mph83%29.95 "Hg10 mi
5:30 am75 °FClear.5 mph83%29.95 "Hg10 mi
5:00 am75 °FPassing clouds.6 mph83%29.95 "HgN/A
Weather by CustomWeather, © 2017

See weather overviewHow to use our weather pages